Voltar ao catálogo

STARLINK-32304

AtivoComunicaçõesVLEO
NORAD 60738·PAYLOAD·🇺🇸 United States

Lançado Aug 28, 2024 de Cape Canaveral Space Force Station

Loading…

Próximas Passagens (próximas 24 horas)

TLE

AtualizadoSource: CelesTrak SupGP

Época: Sep 14, 2026, 21:21 UTC

1 60738C 24152U   26257.89006944 -.00039534  00000+0 -11682-2 0  2572
2 60738  53.1566 107.8517 0001447  87.4461 253.8849 15.34404707    12

Acompanhe STARLINK-32304 em tempo real com AllMySat

Download on the App Store